Location: Hoyos del Collado
(40.3594°N, 5.2003°W)
Time: 01:45:28
(UTC+00:00)

Cosmos 2100 Rocket - Visible Passes

Search period start: 19 July 2024 00:00
Search period end: 29 July 2024 00:00
Orbit: 955 x 1000 km, 82.9° (Epoch: 18 July)

Date Brightness Start Highest point End Pass type
(mag) Time Alt. Az. Time Alt. Az. Time Alt. Az.
19 Jul 4.9 01:43:08 32° W 01:43:57 34° WNW 01:49:29 10° N visible
20 Jul 4.0 00:24:20 65° E 00:24:24 65° E 00:30:32 10° NNE visible
20 Jul 5.6 02:09:03 17° W 02:10:22 19° WNW 02:14:34 10° NNW visible
20 Jul 5.8 23:05:32 16° E 23:05:45 16° E 23:09:22 10° NE visible
21 Jul 3.9 00:50:14 70° W 00:50:25 70° W 00:56:37 10° N visible
21 Jul 5.0 23:31:25 31° E 23:31:25 31° E 23:36:39 10° NNE visible
22 Jul 4.7 01:16:07 37° W 01:16:35 38° WNW 01:22:20 10° N visible
22 Jul 4.2 23:57:17 57° E 23:57:17 57° E 00:03:12 10° NNE visible
23 Jul 5.5 01:41:59 20° W 01:42:59 21° WNW 01:47:34 10° NNW visible
23 Jul 5.9 22:38:27 14° E 22:38:34 14° E 22:41:37 10° NE visible
24 Jul 3.9 00:23:09 79° WNW 00:23:09 79° WNW 00:29:22 10° N visible
24 Jul 6.2 02:07:58 10° W 02:09:36 11° WNW 02:11:14 10° NW visible
24 Jul 5.2 23:04:18 27° E 23:04:18 27° E 23:09:12 10° NNE visible
25 Jul 4.6 00:49:00 43° W 00:49:15 43° WNW 00:55:10 10° N visible
25 Jul 4.3 23:30:08 50° E 23:30:08 50° E 23:35:52 10° NNE visible
26 Jul 5.4 01:14:50 23° W 01:15:37 24° WNW 01:20:32 10° NNW visible
26 Jul 5.9 22:11:16 12° E 22:11:23 12° ENE 22:13:43 10° ENE visible
26 Jul 3.9 23:55:58 86° NNW 23:55:58 86° NNW 00:02:06 10° N visible
27 Jul 6.1 01:40:40 12° W 01:42:11 13° WNW 01:44:50 10° NW visible
27 Jul 5.3 22:37:05 24° E 22:37:05 24° E 22:41:45 10° NNE visible
28 Jul 4.5 00:21:47 48° W 00:21:56 49° WNW 00:27:58 10° N visible
28 Jul 4.5 23:02:53 44° E 23:02:53 44° E 23:08:31 10° NNE visible
